W8MAL Weather Reports


Display with metric or nautical units.
time (UTC)temp
F
wind
direction
speed
MPH
gust
MPH
rain 1hr
in
rain 24hr
in
rain mn
in
humidity
%
barometer
mb
20260503224052 60 265 4.0 4.0 0.00 0.00 0.00 42 1010.6
20260503223550 61 180 2.0 2.0 0.00 0.00 0.00 44 1010.6
20260503223045 61 216 6.0 6.0 0.00 0.00 0.00 42 1010.2
20260503222544 61 198 5.0 5.0 0.00 0.00 0.00 42 1010.2
20260503222041 61 280 8.0 9.0 0.00 0.00 0.00 43 1010.2
20260503221539 61 237 6.0 6.0 0.00 0.00 0.00 43 1010.2
20260503221036 61 223 10.0 11.0 0.00 0.00 0.00 42 1010.2
20260503220532 61 274 10.0 10.0 0.00 0.00 0.00 42 1010.2
20260503220029 60 226 10.0 11.0 0.00 0.00 0.00 42 1010.6
20260503215527 60 235 11.0 11.0 0.00 0.00 0.00 41 1010.6
20260503215024 60 217 5.0 5.0 0.00 0.00 0.00 42 1010.6
20260503214522 61 220 10.0 11.0 0.00 0.00 0.00 42 1011.0
20260503214018 61 204 15.0 16.0 0.00 0.00 0.00 40 1011.0
20260503213517 61 240 10.0 11.0 0.00 0.00 0.00 41 1011.0
20260503213013 61 226 8.0 9.0 0.00 0.00 0.00 40 1010.6
20260503212510 61 244 7.0 8.0 0.00 0.00 0.00 42 1010.6
20260503212008 61 230 10.0 11.0 0.00 0.00 0.00 40 1010.6
20260503211505 61 234 7.0 9.0 0.00 0.00 0.00 40 1011.0
20260503211000 62 238 10.0 11.0 0.00 0.00 0.00 40 1011.0
20260503210457 62 215 7.0 9.0 0.00 0.00 0.00 40 1011.0
20260503205957 62 221 11.0 12.0 0.00 0.00 0.00 39 1010.6
20260503205454 61 247 4.0 5.0 0.00 0.00 0.00 39 1010.6
20260503204951 62 228 10.0 11.0 0.00 0.00 0.00 40 1010.6
20260503204448 62 238 12.0 13.0 0.00 0.00 0.00 40 1011.0
20260503203945 62 236 9.0 11.0 0.00 0.00 0.00 40 1011.0
20260503203442 61 241 12.0 13.0 0.00 0.00 0.00 39 1011.0
20260503202939 61 223 12.0 13.0 0.00 0.00 0.00 39 1011.3
20260503202437 62 222 11.0 12.0 0.00 0.00 0.00 39 1011.3
20260503201936 62 230 10.0 10.0 0.00 0.00 0.00 40 1011.3
20260503201432 62 240 6.0 7.0 0.00 0.00 0.00 41 1011.3
20260503200930 62 224 10.0 11.0 0.00 0.00 0.00 41 1011.3
20260503200426 61 217 6.0 7.0 0.00 0.00 0.00 41 1011.3
20260503195923 62 235 5.0 6.0 0.00 0.00 0.00 41 1011.3
20260503195420 61 185 5.0 6.0 0.00 0.00 0.00 42 1011.3
20260503194916 61 218 6.0 7.0 0.00 0.00 0.00 40 1011.3
20260503194413 62 192 7.0 8.0 0.00 0.00 0.00 41 1011.6
20260503193909 62 205 6.0 6.0 0.00 0.00 0.00 42 1011.6
20260503193404 62 226 9.0 10.0 0.00 0.00 0.00 42 1011.6
20260503192900 61 241 9.0 10.0 0.00 0.00 0.00 40 1012.0
20260503192356 62 235 9.0 10.0 0.00 0.00 0.00 40 1012.0
20260503191853 62 229 9.0 10.0 0.00 0.00 0.00 41 1012.0
20260503191350 62 244 6.0 6.0 0.00 0.00 0.00 39 1012.3
20260503190846 62 210 9.0 10.0 0.00 0.00 0.00 42 1012.3
20260503190344 62 211 10.0 11.0 0.00 0.00 0.00 40 1012.3
20260503185841 62 246 6.0 6.0 0.00 0.00 0.00 39 1012.7
20260503185337 61 246 6.0 7.0 0.00 0.00 0.00 41 1012.7
20260503184837 60 227 11.0 13.0 0.00 0.00 0.00 40 1012.7
20260503184333 61 227 7.0 8.0 0.00 0.00 0.00 41 1012.7
20260503183829 61 205 12.0 13.0 0.00 0.00 0.00 39 1012.7
20260503183326 61 228 10.0 11.0 0.00 0.00 0.00 41 1012.7
20260503182824 61 246 10.0 10.0 0.00 0.00 0.00 40 1012.7
20260503182323 61 284 7.0 9.0 0.00 0.00 0.00 41 1012.7
20260503181819 61 221 11.0 12.0 0.00 0.00 0.00 42 1012.7
20260503181317 61 240 6.0 7.0 0.00 0.00 0.00 40 1013.0
20260503180813 61 198 8.0 9.0 0.00 0.00 0.00 42 1013.0
20260503180311 61 248 7.0 7.0 0.00 0.00 0.00 41 1013.0
20260503175807 61 218 8.0 11.0 0.00 0.00 0.00 42 1013.0
20260503175305 60 241 7.0 8.0 0.00 0.00 0.00 42 1013.0
20260503174800 60 196 9.0 10.0 0.00 0.00 0.00 41 1013.0
20260503174259 60 240 6.0 7.0 0.00 0.00 0.00 40 1013.3
20260503173754 60 261 11.0 11.0 0.00 0.00 0.00 43 1013.3
20260503173250 60 223 10.0 11.0 0.00 0.00 0.00 42 1013.3
20260503172747 61 233 8.0 10.0 0.00 0.00 0.00 44 1013.0
20260503172244 60 208 7.0 9.0 0.00 0.00 0.00 44 1013.0
20260503171740 60 252 8.0 10.0 0.00 0.00 0.00 46 1013.0
20260503171238 60 224 6.0 7.0 0.00 0.00 0.00 49 1013.7
20260503170735 59 290 2.0 2.0 0.00 0.00 0.00 47 1013.7
20260503170232 60 156 4.0 4.0 0.00 0.00 0.00 50 1013.7
20260503160153 58 215 6.0 6.0 0.00 0.00 0.00 54 1014.4
20260503150623 56 226 6.0 7.0 0.00 0.00 0.00 57 1014.7
20260503150119 55 170 3.0 3.0 0.00 0.00 0.00 58 1014.7
20260503131013 48 228 5.0 5.0 0.00 0.00 0.00 62 1015.4
20260503130511 47 252 4.0 4.0 0.00 0.00 0.00 61 1015.4
20260503110401 35 216 2.0 2.0 0.00 0.00 0.00 79 1015.4
20260503090252 36 204 4.0 4.0 0.00 0.00 0.00 76 1015.4
20260503081220 36 198 2.0 2.0 0.00 0.00 0.00 78 1015.4
20260503080715 36 162 2.0 2.0 0.00 0.00 0.00 78 1015.4
20260503080212 36 223 2.0 2.0 0.00 0.00 0.00 79 1015.4
20260503072649 37 210 3.0 3.0 0.00 0.00 0.00 76 1015.4
20260503072146 38 228 4.0 4.0 0.00 0.00 0.00 75 1015.4
20260503071643 38 230 3.0 4.0 0.00 0.00 0.00 75 1015.4
20260503071139 38 192 3.0 3.0 0.00 0.00 0.00 74 1015.4
20260503070636 38 228 4.0 4.0 0.00 0.00 0.00 75 1015.4
20260503070135 38 236 3.0 3.0 0.00 0.00 0.00 75 1015.4
20260503060104 39 222 4.0 4.0 0.00 0.00 0.00 72 1016.0
20260503055055 40 168 3.0 3.0 0.00 0.00 0.00 70 1016.0
20260503054551 40 228 3.0 3.0 0.00 0.00 0.00 70 1016.0
20260503054049 40 218 3.0 3.0 0.00 0.00 0.00 69 1016.0
20260503053547 40 210 4.0 4.0 0.00 0.00 0.00 69 1016.0
20260503053044 40 228 3.0 3.0 0.00 0.00 0.00 69 1015.7
20260503052541 40 228 4.0 4.0 0.00 0.00 0.00 69 1015.7
20260503052037 41 234 3.0 3.0 0.00 0.00 0.00 68 1015.7
20260503051533 41 234 3.0 3.0 0.00 0.00 0.00 67 1016.0
20260503051031 41 234 3.0 4.0 0.00 0.00 0.00 68 1016.0
20260503050526 41 216 3.0 3.0 0.00 0.00 0.00 67 1016.0
20260503050024 41 222 3.0 3.0 0.00 0.00 0.00 67 1016.0
20260503045521 41 240 3.0 3.0 0.00 0.00 0.00 67 1016.0
20260503045018 41 234 3.0 3.0 0.00 0.00 0.00 67 1016.0
20260503044514 41 184 3.0 3.0 0.00 0.00 0.00 68 1016.0
20260503044012 41 234 2.0 2.0 0.00 0.00 0.00 69 1016.0
20260503043508 41 203 3.0 3.0 0.00 0.00 0.00 69 1016.0
20260503043005 42 228 2.0 2.0 0.00 0.00 0.00 68 1015.7
20260503042502 42 205 2.0 2.0 0.00 0.00 0.00 67 1015.7
20260503041958 42 216 3.0 3.0 0.00 0.00 0.00 65 1015.7
20260503041455 43 204 3.0 3.0 0.00 0.00 0.00 64 1015.7
20260503040953 43 224 3.0 3.0 0.00 0.00 0.00 64 1015.7
20260503040450 42 204 4.0 4.0 0.00 0.00 0.00 65 1015.7
20260503035947 43 220 3.0 3.0 0.00 0.00 0.00 67 1016.0
20260503035444 43 222 3.0 3.0 0.00 0.00 0.00 66 1016.0
20260503034942 43 206 2.0 2.0 0.00 0.00 0.00 66 1016.0
20260503034438 44 225 4.0 4.0 0.00 0.00 0.00 64 1016.0
20260503033935 44 220 3.0 3.0 0.00 0.00 0.00 64 1016.0
20260503033433 44 228 3.0 3.0 0.00 0.00 0.00 64 1016.0
20260503032931 44 228 4.0 4.0 0.00 0.00 0.00 64 1016.5
20260503032429 44 228 3.0 3.0 0.00 0.00 0.00 64 1016.5
20260503031926 44 208 2.0 2.0 0.00 0.00 0.00 66 1016.5
20260503031424 43 234 2.0 2.0 0.00 0.00 0.00 68 1016.5
20260503030920 43 224 2.0 2.0 0.00 0.00 0.00 68 1016.5
20260503030417 43 223 2.0 2.0 0.00 0.00 0.00 70 1016.5
20260503025914 43 192 2.0 2.0 0.00 0.00 0.00 71 1016.5
20260503025411 43 224 2.0 2.0 0.00 0.00 0.00 70 1016.5
20260503024908 44 202 0.0 0.0 0.00 0.00 0.00 69 1016.5
20260503024405 44 224 0.0 0.0 0.00 0.00 0.00 68 1016.5
20260503023902 44 212 0.0 0.0 0.00 0.00 0.00 69 1016.5
20260503023359 44 216 0.0 0.0 0.00 0.00 0.00 68 1016.5
20260503022856 44 228 0.0 0.0 0.00 0.00 0.00 67 1016.0
20260503022355 44 204 0.0 0.0 0.00 0.00 0.00 66 1016.0
20260503021852 44 210 0.0 0.0 0.00 0.00 0.00 67 1016.0
20260503021349 44 202 0.0 0.0 0.00 0.00 0.00 68 1016.0
20260503020846 44 201 0.0 0.0 0.00 0.00 0.00 67 1016.0
20260503020344 44 210 0.0 0.0 0.00 0.00 0.00 65 1016.0
20260503015840 45 224 0.0 0.0 0.00 0.00 0.00 62 1016.5
20260503015337 45 234 0.0 0.0 0.00 0.00 0.00 62 1016.5
20260503014833 45 216 2.0 2.0 0.00 0.00 0.00 61 1016.5
20260503014331 45 228 2.0 2.0 0.00 0.00 0.00 59 1016.0
20260503013828 45 222 2.0 2.0 0.00 0.00 0.00 59 1016.0
20260503013325 44 188 2.0 2.0 0.00 0.00 0.00 62 1016.0
20260503012822 44 204 0.0 0.0 0.00 0.00 0.00 64 1016.5
20260503012320 44 218 0.0 0.0 0.00 0.00 0.00 69 1016.5
20260503011816 45 190 0.0 0.0 0.00 0.00 0.00 67 1016.5
20260503011313 45 204 0.0 0.0 0.00 0.00 0.00 63 1016.0
20260503010809 45 222 2.0 2.0 0.00 0.00 0.00 61 1016.0
20260503010307 45 228 0.0 0.0 0.00 0.00 0.00 59 1016.0
20260503005804 45 218 0.0 0.0 0.00 0.00 0.00 61 1016.0
20260503005304 45 216 0.0 0.0 0.00 0.00 0.00 61 1016.0
20260503004757 45 223 0.0 0.0 0.00 0.00 0.00 62 1016.0
20260503004255 45 222 0.0 0.0 0.00 0.00 0.00 61 1015.7
20260503003752 45 225 0.0 0.0 0.00 0.00 0.00 62 1015.7
20260503003249 45 228 0.0 0.0 0.00 0.00 0.00 62 1015.7
20260503002746 45 230 0.0 0.0 0.00 0.00 0.00 61 1015.7
20260503002243 45 218 0.0 0.0 0.00 0.00 0.00 57 1015.7
20260503001739 46 218 0.0 0.0 0.00 0.00 0.00 58 1015.7
20260503001235 46 218 0.0 0.0 0.00 0.00 0.00 58 1015.7
20260503000733 46 224 0.0 0.0 0.00 0.00 0.00 58 1015.7
20260503000233 46 223 0.0 0.0 0.00 0.00 0.00 57 1015.7
20260502235727 46 242 0.0 0.0 0.00 0.00 0.00 58 1015.7
20260502235225 46 258 0.0 0.0 0.00 0.00 0.00 55 1015.7
20260502234721 46 276 0.0 0.0 0.00 0.00 0.00 57 1015.7
20260502234219 46 263 0.0 0.0 0.00 0.00 0.00 56 1015.7
20260502233714 47 252 0.0 0.0 0.00 0.00 0.00 57 1015.7
20260502233211 47 270 0.0 0.0 0.00 0.00 0.00 58 1015.7
20260502232707 47 321 0.0 0.0 0.00 0.00 0.00 56 1015.4
20260502232205 47 290 0.0 0.0 0.00 0.00 0.00 55 1015.4
20260502231701 47 252 0.0 0.0 0.00 0.00 0.00 56 1015.4
20260502231159 47 262 0.0 0.0 0.00 0.00 0.00 55 1015.7
20260502230657 47 264 0.0 0.0 0.00 0.00 0.00 57 1015.7
20260502230155 47 282 0.0 0.0 0.00 0.00 0.00 54 1015.7
20260502225650 47 290 0.0 0.0 0.00 0.00 0.00 53 1016.0
20260502225148 47 268 0.0 0.0 0.00 0.00 0.00 53 1016.0
20260502224644 47 286 1.0 1.0 0.00 0.00 0.00 57 1016.0